This demonstration page uses our WeatherBlox Daily Observations layout. Learn more.

Left ArrowRight Arrow

34.02893, -84.19858

Hourly Observations for February 24, 2022

Temp ( °F °C ) Dew Point ( °F °C ) Humidity (%) Winds ( mph kmh ) Pressure ( in mb ) Visibility ( mi km ) Precip ( " mm )
12:53 am 00:53 Clear 59 15 58 14.4 96 96 Calm 30.13 1020 7 11 0.00 0.00
1:12 am 01:12 Clear with Mist and Fog 60 15.6 59 15 96 96 Calm 30.15 1021 2 3 0.00 0.00
1:22 am 01:22 Clear with Mist and Fog 59 15 59 15 100 100 Calm 30.15 1021 3 5 0.00 0.00
1:32 am 01:32 Clear with Mist and Fog 58 14.4 57 13.9 97 97 Calm 30.14 1021 2 3 0.00 0.00
1:36 am 01:36 Clear with Fog 55 12.8 55 12.8 100 100 Calm 30.15 1021 1 1 0.00 0.00
1:48 am 01:48 Clear with Mist and Fog 57 14 55 13 94 94 Calm 30.15 1021 1 2 0.00 0.00
1:53 am 01:53 Clear with Mist and Fog 58 14.4 57 13.9 97 97 Calm 30.13 1020 6 10 0.00 0.00
2:15 am 02:15 Clear with Mist and Fog 57 13.9 57 13.9 100 100 ESE 3 6 30.15 1021 3 4 0.00 0.00
2:35 am 02:35 Clear with Mist and Fog 57 13.9 57 13.9 100 100 Calm 30.15 1021 5 8 0.00 0.00
2:53 am 02:53 Clear with Mist and Fog 59 15 58 14.4 96 96 Calm 30.12 1020 4 6 0.00 0.00
2:56 am 02:56 Clear with Mist and Fog 58 14.4 58 14.4 100 100 Calm 30.14 1021 2 3 0.00 0.00
3:07 am 03:07 Mostly Cloudy with Mist and Fog 58 14.4 58 14.4 100 100 SSE 3 6 30.14 1021 1 1 0.00 0.00
3:17 am 03:17 Clear with Mist and Fog 59 15 59 15 100 100 SSE 3 6 30.14 1021 2 3 0.00 0.00
3:26 am 03:26 Clear 59 15 59 15 100 100 S 5 7 30.13 1020 8 13 0.00 0.00
3:53 am 03:53 Clear 60 15.6 59 15 96 96 S 6 9 30.11 1020 9 14 0.00 0.00
4:53 am 04:53 Clear 59 15 58 14.4 96 96 SSW 6 9 30.13 1020 8 13 0.00 0.00
5:53 am 05:53 Clear 60 15.6 59 15 96 96 SSW 7 11 30.13 1020 9 14 0.00 0.00
6:16 am 06:16 Partly Cloudy 61 16.1 60 15.6 97 97 WSW 7 11 30.15 1021 9 14 0.00 0.00
6:25 am 06:25 Mostly Cloudy 61 16.1 60 15.6 97 97 SW 9 15 30.15 1021 9 14 0.00 0.00
6:53 am 06:53 Cloudy 61 16.1 60 15.6 97 97 WSW 5 7 30.14 1021 8 13 0.00 0.00
7:53 am 07:53 Cloudy with Mist and Fog 62 16.7 60 15.6 93 93 W 7 11 30.16 1021 6 10 0.00 0.00
8:53 am 08:53 Cloudy 62 16.7 60 15.6 93 93 W 7 11 30.19 1022 8 13 0.00 0.00
9:00 am 09:00 Cloudy 63 17.2 60 15.6 90 90 W 8 13 30.19 1022 8 13 0.00 0.00
9:53 am 09:53 Cloudy 64 17.8 60 15.6 87 87 SW 10 17 30.20 1023 10 16 0.00 0.00
10:53 am 10:53 Cloudy 65 18.3 59 15 81 81 W 9 15 30.20 1023 10 16 0.00 0.00
11:00 am 11:00 Cloudy 66 18.9 60 15.6 81 81 WSW 9 15 30.21 1023 10 16 0.00 0.00
11:53 am 11:53 Mostly Cloudy 68 20 60 15.6 76 76 SW 12 19 30.20 1023 10 16 0.00 0.00
12:09 pm 12:09 Mostly Sunny 68 20 59 15 73 73 SSW 13 20 30.19 1022 10 16 0.00 0.00
12:53 pm 12:53 Sunny 69 20.6 59 15 70 70 SSW 9 15 30.18 1022 10 16 0.00 0.00
1:53 pm 13:53 Mostly Sunny 71 21.7 57 13.9 61 61 SW 8 13 30.15 1021 10 16 0.00 0.00
2:53 pm 14:53 Mostly Sunny 74 23.3 58 14.4 57 57 SW 10 17 30.12 1020 10 16 0.00 0.00
3:53 pm 15:53 Mostly Sunny 73 22.8 57 13.9 57 57 SSW 8 13 30.11 1020 10 16 0.00 0.00
4:53 pm 16:53 Mostly Cloudy 75 23.9 58 14.4 55 55 SW 12 19 30.10 1019 10 16 0.00 0.00
5:53 pm 17:53 Mostly Sunny 73 22.8 56 13.3 55 55 S 8 13 30.09 1019 10 16 0.00 0.00
6:53 pm 18:53 Clear 70 21.1 56 13.3 61 61 SSE 6 9 30.10 1019 10 16 0.00 0.00
7:53 pm 19:53 Cloudy 69 20.6 57 13.9 66 66 S 3 6 30.14 1021 10 16 0.00 0.00
8:53 pm 20:53 Mostly Cloudy 66 18.9 57 13.9 73 73 Calm 30.15 1021 10 16 0.00 0.00
9:53 pm 21:53 Clear 63 17.2 57 13.9 81 81 SSE 5 7 30.15 1021 10 16 0.00 0.00
10:53 pm 22:53 Clear 63 17.2 57 13.9 81 81 SSE 3 6 30.14 1021 10 16 0.00 0.00
11:53 pm 23:53 Clear 63 17.2 57 13.9 81 81 S 5 7 30.13 1020 10 16 0.00 0.00

Powered by AerisWeather